www.pogodaiklimat.ru

Погода и климат >> Архив погоды >> Россия >> Владимирская область >> Гусь-Хрустальный


ПОГОДА в Гусь-Хрустальный

  • Прогноз погоды в Гусь-Хрустальный
  • Монитор погоды в Гусь-Хрустальный

АРХИВ ПОГОДЫ в Гусь-Хрустальный

Время (UTC), дата Ветер
(напр.,м/с)
 
Видим.   Явления Облачность Т
(С)
Тd
(С)
f
(%)
Тe
(С)
Тes
(С)
Комфортность P
(гПа)
Po
(гПа)
Тmin
(С)
Tmax
(С)
R
(мм)
R24
(мм)
S
(см)
03 10.07 ЮЗ 2 20 км ясно +12.0 +10.5 91 +11 +12 997.9 981.8 +11.3 8
06 10.07 Ю 2 20 км 8/5 300 м
[Cb cap Cs]
+16.4 +11.8 74 +17 +21 997.7 981.9
09 10.07 ЮЗ 5
{10}
20 км {ливн. осадки} 8/6 300 м
[Cb cap Cs]
+18.6 +10.5 59 +19 +22 997.3 981.7
12 10.07 ЮЗ 3
{10}
20 км {ливн. осадки} 9/9 300 м
[Cb cap]
+18.5 +9.8 57 +19 +20 997.4 981.7
15 10.07 СЗ 2 20 км 9/9 300 м
[Cb cap]
+17.5 +9.8 61 +18 +18 997.9 982.1 +20.0 0.5
18 10.07 ЮЗ 1 20 км {ливн. осадки} 9/9 300 м
[Cb cap]
+14.4 +11.2 81 +15 +15 998.8 982.9
21 10.07 З 1 10 км {ливн. осадки} 8/6 300 м
[Cb cap Ac und]
+11.9 +10.6 92 +12 +12 998.8 982.7
00 11.07 З 1 10 км {ливн. осадки} 9/9 300 м
[Cb cap]
+11.8 +10.8 94 +12 +12 999.2 983.1
03 11.07 ЮЗ 1 4000 м слаб. ливневой дождь 10/10 300 м
[Cb cap]
+12.5 +11.5 94 +12 +12 999.4 983.4 +11.7 2
06 11.07 Ю 1 4000 м слаб. ливневой дождь 10/10 300 м
[Cb cap]
+13.6 +12.2 91 +14 +14 1000.1 984.1
09 11.07 ЮЗ 2 10 км слаб. ливневой дождь 9/9 300 м
[Cb cap]
+16.0 +12.8 81 +16 +18 1000.1 984.3
12 11.07 С 1 10 км слаб. ливневой дождь 9/9 300 м
[Cb cap]
+15.4 +12.6 83 +16 +17 1001.2 985.3
15 11.07 СЗ 1 10 км слаб. ливневой дождь 9/9 300 м
[Cb cap]
+13.2 +11.8 91 +13 +14 1002.8 986.7 +16.7 8
18 11.07 СЗ 1 20 км {ливн. осадки} 9/9 300 м
[Cb cap]
+13.0 +11.7 92 +13 +13 1003.8 987.7
21 11.07 С 1 20 км 9/9 300 м
[Cb cap]
+12.3 +10.9 91 +12 +12 1004.1 988.0
00 12.07 штиль 0 10 км 10/10 300 м
[Cb cap]
+11.8 +10.6 92 +11 +11 1004.6 988.4
03 12.07 С 1 1000 м дымка 10/10 300 м
[St]
+11.3 +10.4 94 +11 +11 1005.1 988.9 +11.3 0.0
06 12.07 С 1 4000 м в посл. час ливневой дождь 10/10 300 м
[Cb cap]
+11.6 +10.5 93 +11 +11 1006.1 989.9 +11.3
09 12.07 С 1 20 км 9/9 300 м
[Cb cap]
+14.7 +10.5 76 +15 +17 1006.9 990.9
12 12.07 С 1 20 км 9/9 300 м
[Cu Sc]
+16.3 +9.9 66 +17 +18 1007.5 991.5
15 12.07 СВ 2 20 км 8/8 300 м
[Cu Sc]
+15.8 +9.5 66 +16 +16 1007.9 991.9 +17.1 0.5
18 12.07 С 1 20 км 9/8 300 м
[Sc Cs]
+12.7 +9.1 79 +13 +13 1008.0 991.9
21 12.07 С 1 20 км 8/5 300 м
[Sc Cs]
+10.2 +8.9 92 +10 +10 1008.4 992.1
00 13.07 С 1 20 км 8/5 300 м
[Sc Cs]
+10.6 +8.8 89 +10 +10 1007.2 991.0
03 13.07 С 1 200 м слаб. ливневой дождь 9/9 300 м
[Cb cap]
+10.3 +8.9 91 +10 +10 1007.9 991.6 +10.0 0.5
06 13.07 С 1 20 км {ливн. осадки} 9/9 300 м
[Cb cap]
+11.5 +8.7 83 +11 +12 1008.0 991.8
09 13.07 С 1 20 км {ливн. осадки} 9/9 300 м
[Cb cap]
+13.1 +8.4 73 +13 +15 1008.9 992.8
12 13.07 СЗ 1 20 км {ливн. осадки} 9/8 300 м
[Cb cap Cs]
+16.6 +8.0 57 +18 +20 1008.9 993.0
15 13.07 С 2 20 км 5/4 300 м
[Cu med, cong Ci fib]
+17.5 +6.8 49 +18 +19 1009.2 993.2 +17.9 0.3
18 13.07 З 1 20 км 8/5 300 м
[Sc Cs]
+13.3 +10.0 80 +13 +13 1010.1 993.9
21 13.07 штиль 0 20 км 8/5 300 м
[Sc Cs]
+10.1 +9.1 94 +9 +9 1010.8 994.4
00 14.07 штиль 0 20 км 8/5 300 м
[Sc Cs]
+9.0 +8.0 93 +8 +8 1011.1 994.7
03 14.07 СЗ 1 20 км 4/3 300 м
[Sc Ci fib]
+10.2 +9.2 94 +10 +11 1011.5 995.1 +8.9
06 14.07 СЗ 1 20 км 3/0
[Ci fib]
+18.3 +8.3 52 +20 +30 1011.0 995.1
09 14.07 СЗ 2 20 км 9/9 300 м
[Cb cap]
+18.7 +5.8 43 +20 +21 1010.9 995.0
12 14.07 ЮЗ 1 20 км 8/5 300 м
[Cu med, cong Ci fib]
+21.6 +5.2 34 +22 +28 комфорт 1010.3 994.6
15 14.07 З 1 20 км 8/8 300 м
[Cb cap Cs]
+20.0 +6.9 43 +22 +23 комфорт 1010.6 994.8 +21.6
18 14.07 СЗ 1 20 км 8/6 300 м
[Sc Cs]
+15.0 +10.1 72 +16 +16 1011.2 995.1
21 14.07 штиль 0 20 км 8/5 300 м
[Sc Ac und Cs]
+12.0 +10.1 88 +11 +11 1011.6 995.3
00 15.07 штиль 0 10 км 9/8 300 м
[Cb cap Cs]
+9.8 +8.7 93 +9 +9 1011.7 995.3
03 15.07 штиль 0 20 км 4/4 300 м
[Sc]
+10.8 +9.1 89 +10 +11 1011.7 995.4 +9.5
06 15.07 В 1 20 км 3/0
[Cs]
+19.3 +8.2 49 +21 +31 комфорт 1011.3 995.4
09 15.07 З 1 20 км 8/8 300 м
[Cu med, cong]
+20.3 +7.2 43 +22 +26 комфорт 1010.7 994.9
12 15.07 З 1 20 км 9/9 300 м
[Cb cap]
+21.4 +6.9 39 +22 +23 комфорт 1010.6 994.8
15 15.07 СВ 1 20 км 8/3 300 м
[Sc Cs]
+21.2 +8.3 43 +22 +24 комфорт 1010.5 994.7 +22.5
18 15.07 штиль 0 20 км 9/6 300 м
[Sc Cs]
+16.8 +11.0 69 +17 +17 1011.0 995.0
21 15.07 СЗ 1 20 км 8/4 300 м
[Sc Cs]
+13.6 +11.2 85 +14 +14 1011.3 995.2
00 16.07 штиль 0 20 км 8/8 300 м
[Sc]
+12.3 +11.0 92 +12 +12 1011.7 995.4
03 16.07 З 1 20 км 9/9 300 м
[Cb cap]
+13.2 +11.8 91 +13 +13 1012.4 996.2 +12.1
06 16.07 В 1 20 км 9/8 300 м
[Cb cap Ac und]
+17.0 +11.5 70 +18 +19 1012.3 996.3
09 16.07 ЮВ 1 20 км 9/6 300 м
[Cb cap Ac und Ci sp]
+20.9 +11.3 54 +24 +28 комфорт 1011.9 996.1
12 16.07 ЮВ 2 20 км 9/3 300 м
[Cu med, cong As trans Cs]
+24.3 +9.4 39 +25 +29 комфорт 1010.7 995.1
15 16.07 В 2 20 км 9/6 300 м
[Cb cap Ac und]
+22.8 +10.9 47 +25 +25 комфорт 1009.8 994.2 +25.3
18 16.07 В 1 20 км 8/6 300 м
[Cb cap Cs]
+19.6 +12.4 63 +22 +22 комфорт 1009.9 994.1
21 16.07 Ю 1 20 км 8/6
[Sc Cs]
+19.2 +10.5 57 +21 +21 комфорт 1010.2 994.4
00 17.07 В 1 20 км 8/6 300 м
[Sc Cs]
+13.9 +10.8 82 +14 +14 1009.8 993.7

 

Местоположение метеостанции Гусь-Хрустальный (Владимирская область, Россия): широта 55.60 долгота 40.65 высота над уровнем моря 136 м.

В архиве по умолчанию представлена погода в Гусь-Хрустальный за последнюю неделю. Архивные данные за месяц целиком и за предыдущие месяцы, начиная с января 2011 года, Вы можете получить, выбрав интересующий диапазон дат из раскрывающегося списка и нажав кнопку "Ввод!".


*Определитесь, кто Вы:
робот инопланетянин человек

Внимание! Время в таблицах - всемирное. Для получения местного времени необходимо прибавить поправку, которая равна 3 ч.

Смотрите также архив погоды в соседних городах и на ближайших метеорологических станциях:

Погода в Черустях (Московская область, Россия) (40 км)
Погода в Туме (Рязанская область, Россия) (53 км)
Погода в Владимире (Владимирская область, Россия) (61 км)
Погода в Петушках (Владимирская область, Россия) (83 км)
Погода в Муроме (Владимирская область, Россия) (87 км)
Погода в Суздале (Владимирская область, Россия) (92 км)
Погода в Коврове (Владимирская область, Россия) (95 км)
Погода в Выксе (Нижегородская область, Россия) (97 км)
Погода в Елатьме (Рязанская область, Россия) (101 км)
Погода в Егорьевске (Московская область, Россия) (106 км)

Пояснения к столбцам:

Ветер - указаны скорость ветра в м/с - средняя за 10 мин, порывы в срок и между сроками (в фигурных скобках) и направление, откуда дует ветер: С - северный, СВ - северо-восточный, В - восточный, ЮВ - юго-восточный, Ю - южный, ЮЗ - юго-западный, З - западный, СЗ - северо-западный.
Видимость - горизонтальная дальность видимости в метрах или километрах. При видимости от 1 до 10 км при отсутствии осадков обычно наблюдается дымка, при ухудшении видимости до 1 км и менее - туман. В сухую погоду видимость может ухудшаться дымом, пылью или мглою.
Явления - указаны атмосферные явления, наблюдавшиеся в срок или в последний час перед сроком; фигурными скобками обозначены явления, наблюдавшиеся между сроками (за 1-3 часа до срока); квадратными скобками обозначены град или гололедные отложения с указанием их диаметра в мм.
Облачность - указаны через наклонную черту общая и нижняя облачность в баллах и высота нижней границы облаков в метрах; квадратными скобками обозначены формы облаков: Ci - перистые, Cs - перисто-слоистые, Cc - перисто-кучевые, Ac - высококучевые, As - высокослоистые, Sc - слоисто-кучевые, Ns - слоисто-дождевые, Cu - кучевые, Cb - кучево-дождевые. Подробнее классификацию облаков см. в Атласе облаков (PDF).
T - Температура воздуха - температура, измеренная на высоте 2 м над землей.
Td - Температура точки росы - температура, при понижении до которой содержащийся в воздухе водяной пар достигнет насыщения.
f - Относительная влажность воздуха - влажноcть воздуха, измеренная на высоте 2 м над землей.
Te - Эффективная температура - температура, которую ощущает одетый по сезону человек в тени. Характеристика душности погоды. При расчете учитывается влияние влажности воздуха и скорости ветра на теплоощущения человека.
Tes - Эффективная температура на солнце - температура, которую ощущает человек, с поправкой на солнечный нагрев. Характеристика знойности погоды. Зависит от высоты солнца над горизонтом, облачности и скорости ветра. Ночью, в пасмурную погоду, а также при ветре 12 м/с и более поправка равна нулю.
P - Атмосферное давление - приведенное к уровню моря атмосферное давление.
Po - Атмосферное давление - измеренное на уровне метеостанции атмосферное давление.
Tmin - Минимальная температура - минимум температуры воздуха на высоте 2 м над землей.
Tmax - Максимальная температура - максимум температуры воздуха на высоте 2 м над землей.
R - Количество осадков - Количество выпавших осадков за период времени, мм. При наведении курсора мыши на число - период времени, за который выпало указанное количество осадков.
R24 - Количество осадков - Количество выпавших осадков за 24 часа, мм.
S - Снежный покров - Высота снежного покрова, см. При наведении курсора мыши на число - состояние снежного покрова и степень покрытия местности в баллах.